Regional Weather Roundup
Issued by NWS

Home | Current Version | Previous Version | Text Only | Print | Product List | Glossary On
Versions: 1 2 3 4 5 6 7 8 9 10 11 12 13 14 15 16 17 18 19 20 21 22 23 24 25 26 27 28 29 30 31 32 33 34 35 36 37 38 39 40 41 42 43 44 45 46 47 48 49 50
000
ASUS43 KBIS 090310
RWRND

NORTH DAKOTA REGIONAL WEATHER ROUNDUP
NATIONAL WEATHER SERVICE BISMARCK ND
900 PM CST THU DEC 08 2016

NOTE: "FAIR" INDICATES FEW OR NO CLOUDS BELOW 12,000 FEET WITH NO
SIGNIFICANT WEATHER AND/OR OBSTRUCTIONS TO VISIBILITY.


NDZ001>003-009>011-017-090400-
NORTHWEST NORTH DAKOTA

CITY           SKY/WX    TMP DP  RH WIND       PRES   REMARKS
WILLISTON      CLOUDY   -10 -14  82 CALM      30.58F
MINOT          CLEAR     -4 -10  75 W8        30.57F WCI -19
MINOT AFB      CLEAR     -8 -14  77 W12       30.56F WCI -28
$$

NDZ018>021-031>035-040>046-090400-
SOUTHWEST NORTH DAKOTA

CITY           SKY/WX    TMP DP  RH WIND       PRES   REMARKS
BISMARCK       CLOUDY    -2  -7  79 W6        30.61F WCI -14
DICKINSON      CLOUDY   -13 -17  82 CALM      30.47F
GARRISON         N/A     -9 -14  78 NW9       30.56F WCI -26
HETTINGER ARPT CLOUDY   -11 -16  78 CALM      30.49F
$$

NDZ004>008-012>016-024-026-027-054-090400-
NORTHEAST NORTH DAKOTA

CITY           SKY/WX    TMP DP  RH WIND       PRES   REMARKS
GRAND FORKS    CLOUDY    11   5  77 NW7       30.58S WCI   0
GRND FRKS AFB  CLOUDY     9   1  72 NW8       30.58S WCI  -4
DEVILS LAKE    FLURRIES   0  -5  79 NW8       30.56F WCI -14
$$

NDZ022-023-025-028>030-036>039-047>053-090400-
SOUTHEAST NORTH DAKOTA

CITY           SKY/WX    TMP DP  RH WIND       PRES   REMARKS
FARGO          FLURRIES   6  -1  73 NW12      30.59S WCI  -9
JAMESTOWN      CLEAR     -3  -8  79 NW13      30.56F WCI -22
$$




USA.gov is the U.S. government's official web portal to all federal, state and local government web resources and services.